Regional Weather Roundup
Issued by NWS

Current Version | Previous Version | Text Only | Print | Product List | Glossary On
Versions: 1 2 3 4 5 6 7 8 9 10 11 12 13 14 15 16 17 18 19 20 21 22 23 24 25 26 27 28 29 30 31 32 33 34 35 36 37 38 39 40 41 42 43 44 45 46 47 48 49 50
000
ASUS44 KLIX 070111
RWRLA
LOUISIANA WEATHER ROUNDUP
NATIONAL WEATHER SERVICE NEW ORLEANS LA
800 PM CDT MON JUL 06 2015

NOTE: "FAIR" INDICATES FEW OR NO CLOUDS BELOW 12,000 FEET WITH NO
      SIGNIFICANT WEATHER AND/OR OBSTRUCTIONS TO VISIBILITY.
      SKY/WX - SKY CONDITION AND SIGNIFICANT WEATHER.
      TMP - AIR TEMPERATURE.    DP   - DEWPOINT TEMPERATURE.
      RH  - RELATIVE HUMIDITY.  PRES - PRESSURE.
      HX  - HEAT INDEX.         WCI  - WIND CHILL INDEX.

*  THESE STATIONS ARE NOT NWS OR FAA STATIONS AND ARE NOT UNDER
   NWS QUALITY CONTROL.

LAZ040-048-061>063-065-066-069-070200-
SOUTHEAST LOUISIANA

CITY           SKY/WX    TMP DP  RH WIND       PRES   REMARKS
N.O. AUDUBON     N/A     87  79  75 MISG        N/A  HX 101
N.O. INTL ARPT PTCLDY    85  72  65 S9        30.05F
N.O. LAKEFRONT CLEAR     88  76  67 S10       30.06F HX  99
N.O. DOWNTOWN* FAIR      90  75  62 S9        30.07S HX 100
RESERVE*       NOT AVBL
SLIDELL        CLEAR     84  78  82 SE5       30.06S HX  95
BATON ROUGE    CLEAR     86  73  65 S8        30.04F
BOOTHVILLE     MOCLDY    85  76  74 S7        30.08F
BELLE CHASSE   MOCLDY    84  76  76 S7        30.06F
BOGALUSA*        N/A     87  74  64 S6        30.08S HX  95
GALLIANO*      PTCLDY    85  75  71 S5        30.06F
NEW ROADS*     FAIR     N/A N/A N/A S6        30.03F
GONZALES*      FAIR      85  74  70 SW3       30.04S
HAMMOND*       CLEAR     84  75  74 SE7       30.07S
HOUMA*         PTCLDY    83  77  80 S6        30.06F
PORT FOURCHON*   N/A     86  77  74 S10       30.08F HX  97

$$

LAZ041-044-053-054-070200-
SOUTHWEST LOUISIANA

CITY           SKY/WX    TMP DP  RH WIND       PRES   REMARKS
LAKE CHARLES   PTCLDY    85  75  72 S9        30.01F
LAFAYETTE      CLEAR     85  74  69 S7        30.03F
PATTERSON      CLEAR     82  75  78 S5        30.06F
SALT POINT       N/A     85  78  80 VRB3      30.03F HX  96
NEW IBERIA     NOT AVBL
CHENAULT AIRPK NOT AVBL

$$

LAZ027-028-070200-
CENTRAL LOUISIANA

CITY           SKY/WX    TMP DP  RH WIND       PRES   REMARKS
FORT POLK      CLEAR     85  72  65 S12       29.98F
ALEXANDRIA INT PTCLDY    84  73  69 S6        29.97F
ALEXANDRIA     PTCLDY    86  74  67 S5        30.00F

$$

LAZ001-002-070200-
NORTHWEST LOUISIANA

CITY           SKY/WX    TMP DP  RH WIND       PRES   REMARKS
SHREVEPORT     MOCLDY    87  73  62 S10       29.93F
BARKSDALE AFB  PTCLDY    87  71  59 S15       29.93F
DTN SHREVEPORT PTCLDY    87  71  58 S14       29.93F

$$

LAZ014-016-070200-
NORTHEAST LOUISIANA

CITY           SKY/WX    TMP DP  RH WIND       PRES   REMARKS
MONROE         PTCLDY    84  76  76 S7        29.99F
TALLULAH       CLEAR     83  75  77 S3        30.01F

$$



USA.gov is the U.S. government's official web portal to all federal, state and local government web resources and services.